Date,TemperatureHighF,TemperatureAvgF,TemperatureLowF,DewpointHighF,DewpointAvgF,DewpointLowF,HumidityHigh,HumidityAvg,HumidityLow,PressureMaxIn,PressureMinIn,WindSpeedMaxMPH,WindSpeedAvgMPH,GustSpeedMaxMPH,PrecipitationSumIn
2013-1-1,34.7,27.3,17.4,33.7,23.4,11.4,97,85,74,30.26,30.05,12,4,12,0.00
2013-1-2,36.5,24.3,14.0,18.2,13.5,9.0,85,65,35,30.26,30.16,9,1,9,0.00
2013-1-3,45.0,30.1,19.6,27.3,20.1,15.8,86,68,41,30.40,30.24,11,2,11,0.00
2013-1-4,32.2,29.8,27.3,21.2,19.8,17.8,70,66,62,30.34,30.31,2,0,2,0.00
2013-1-5,42.1,34.9,24.6,31.8,26.5,17.0,80,71,60,30.30,30.16,12,2,12,0.00
2013-1-6,43.5,31.8,22.1,28.5,20.5,13.3,84,64,32,30.37,30.20,17,3,17,0.00
2013-1-7,51.6,34.7,19.4,27.5,20.5,13.4,78,58,32,30.35,30.14,10,1,10,0.00
2013-1-8,56.7,42.2,26.2,45.9,30.8,18.8,97,66,33,30.23,30.07,9,1,9,0.15
2013-1-9,56.8,49.2,43.2,44.7,40.4,33.1,98,74,49,30.40,30.23,10,2,10,0.01
2013-1-10,54.5,48.1,41.9,51.2,45.0,33.8,97,90,57,30.32,29.85,13,2,13,0.09
2013-1-11,67.8,55.0,44.4,48.4,45.1,42.4,95,71,45,29.89,29.77,14,4,14,0.00
2013-1-12,54.1,41.6,26.8,46.7,33.8,22.3,88,75,44,29.99,29.84,21,4,21,0.12
2013-1-13,26.8,21.2,0.0,22.3,14.2,7.2,84,71,62,30.34,29.94,10,0,10,0.00
2013-1-14,31.3,20.6,0.0,13.7,9.1,5.1,73,60,44,30.47,30.32,7,0,7,0.00
2013-1-15,34.7,22.9,15.8,16.5,10.7,5.9,76,60,34,30.34,30.16,4,0,4,0.00
2013-1-16,43.2,27.1,13.5,20.6,14.3,7.1,77,60,35,30.18,30.08,14,0,14,0.02
2013-1-17,45.7,32.8,23.0,30.1,21.8,15.9,83,65,42,30.48,30.16,13,1,13,0.00
2013-1-18,59.2,39.5,21.7,29.4,21.4,15.2,79,53,21,30.50,30.19,8,0,8,0.67
2013-1-19,64.2,48.2,36.1,37.0,31.1,23.2,86,54,31,30.22,30.05,16,4,16,0.00
2013-1-20,59.0,40.7,27.0,34.2,20.3,8.6,75,49,19,30.30,30.18,15,3,15,0.00
2013-1-21,36.7,25.6,18.3,12.9,8.4,3.0,61,48,26,30.38,30.28,13,4,13,0.00
2013-1-22,36.0,26.1,18.9,14.9,10.8,5.4,65,52,41,30.37,30.24,7,2,7,0.00
2013-1-23,58.8,37.3,19.9,40.4,25.7,13.4,78,64,47,30.31,30.15,11,2,11,0.00
2013-1-24,35.4,29.9,23.0,21.0,11.0,3.5,60,45,32,30.40,30.15,14,4,14,0.00
2013-1-25,50.2,36.0,26.6,28.0,23.3,12.7,86,62,37,30.28,30.11,11,3,11,0.00
2013-1-26,63.1,44.8,28.4,30.3,22.3,16.9,80,47,20,30.30,30.17,8,1,8,0.00
2013-1-27,54.7,47.6,40.1,52.5,42.2,24.0,95,82,43,30.18,29.94,11,4,11,0.01
2013-1-28,75.0,64.9,54.0,60.9,57.6,52.3,96,79,56,30.00,29.88,17,5,19,0.00
2013-1-29,68.2,59.1,48.0,61.7,56.1,47.8,99,90,74,29.88,29.50,18,3,18,1.39
2013-1-30,48.0,32.4,25.3,47.8,26.5,14.5,99,79,63,30.04,29.49,35,9,35,0.01
2013-1-31,43.0,24.7,11.7,26.8,14.6,-2.6,87,66,49,30.43,29.99,21,4,21,0.00